Overview Statistics Trail Chart Weather Telemetry Raw packets
 

This is the latest recevied weather packets stored in our database for station/object VO2AGO. If no packets are shown the sender has not sent any weather packets the latest 10 day(s).

<< 27 28 29 30 31 32 33 >>
Time Temp. Humidity Pressure Rain* Wind** Luminosity Snow
1777847300 2.78° C - - - 0 m/s 130 W/m² -
1777846850 2.78° C - - - 0 m/s 148 W/m² -
1777846400 2.78° C - - - 0 m/s 136 W/m² -
1777845950 2.78° C - - - 0 m/s 182 W/m² -
1777845501 2.78° C - - - 0 m/s 249 W/m² -
1777845050 2.78° C - - - 0 m/s 270 W/m² -
1777844601 2.78° C - - - 0 m/s 265 W/m² -
1777844151 2.78° C - - - 0 m/s 299 W/m² -
1777843700 3.33° C - - - 0 m/s 276 W/m² -
1777843250 3.89° C - - - 0 m/s 436 W/m² -
1777842800 3.33° C - - - 0 m/s 560 W/m² -
1777842350 3.33° C - - - 0 m/s 520 W/m² -
1777841901 3.33° C - - - 0 m/s 470 W/m² -
1777841450 3.89° C - - - 0 m/s 420 W/m² -
1777841000 4.44° C - - - 0 m/s 375 W/m² -
1777840550 5° C - - - 0 m/s 298 W/m² -
1777840101 5° C - - - 0 m/s 434 W/m² -
1777839650 5° C - - - 0 m/s 429 W/m² -
1777839200 5° C - - - 0 m/s 471 W/m² -
1777838750 5° C - - - 0 m/s 609 W/m² -
1777838300 5° C - - - 0 m/s 690 W/m² -
1777837850 5.56° C - - - 0 m/s 848 W/m² -
1777837400 6.11° C - - - 0 m/s 998 W/m² -
1777836950 6.67° C - - - 0 m/s 1096 W/m² -
1777836501 6.67° C - - - 0 m/s 1087 W/m² -

* Rain since midnight (hover to see other rain measurements)
** Current wind speed in m/s (hover to see current wind gust speed)